Location: Brusselsch Zeekanaal
(50.8667°N, 4.3667°E)
Time: 06:58:47
(UTC+00:00)

Cosmos 1980 Rocket - Pass Details

Date: 08 November 2025
Orbit: 829 x 848 km, 71.0° (Epoch: 11 December)

Event Time Altitude Azimuth Distance (km) Brightness Sun altitude
Exits shadow 03:27:59 16° 355° (N) 2,091 4.3 -31.4°
Drops below altitude 10° 03:29:45 10° 12° (NNE) 2,475 4.9 -31.1°
Sets 03:32:55 0° 29° (NNE) 3,410 5.9 -30.6°
